Tracking 28790 objects as of 19-Apr-2024
HD Live streaming from Space Station
objects crossing your sky now

STARLINK-6044

Track STARLINK-6044 now!
10-day predictions
STARLINK-6044 is classified as:


NORAD ID: 56479
Int'l Code: 2023-064AH
Perigee: 577.7 km
Apogee: 580.7 km
Inclination: 70.0 °
Period: 96.1 minutes
Semi major axis: 6950 km
RCS: Unknown
Launch date: May 10, 2023
Source: United States (US)
Launch site: AIR FORCE WESTERN TEST RANGE (AFWTR)
Your satellite tracking list
Your tracking list is empty




NASA's NSSDC Master Catalog

Two Line Element Set (TLE):
1 56479U 23064AH  24110.19623670 -.00000096  00000-0 -25365-6 0  9992
2 56479  70.0030  62.7658 0002220 220.7137 139.3856 14.98330050 52820
Source of the keplerian elements: AFSPC